Location: Noordwijk
(52.2400°N, 4.4500°E)
Time: 23:40:47
(UTC+02:00)

NOAA 19 - All Passes

Search period start: 22 May 2018 00:00
Search period end: 01 June 2018 00:00
Orbit: 841 x 862 km, 99.1° (Epoch: 21 May)

Date Brightness Start Highest point End Pass type
(mag) Time Alt. Az. Time Alt. Az. Time Alt. Az.
22 May - 05:51:46 10° NNE 05:57:10 54° E 06:02:34 10° S daylight
22 May - 07:32:50 10° N 07:37:38 32° WNW 07:42:27 10° WSW daylight
22 May - 15:44:23 10° ESE 15:49:12 33° ENE 15:54:02 10° N daylight
22 May - 17:24:25 10° S 17:29:42 51° W 17:35:03 10° NNW daylight
23 May - 05:40:15 10° NNE 05:45:31 44° E 05:50:47 10° S daylight
23 May - 07:21:08 10° N 07:26:09 38° WNW 07:31:11 10° SW daylight
23 May - 15:33:11 10° ESE 15:37:44 28° ENE 15:42:19 10° N daylight
23 May - 17:12:41 10° S 17:18:04 62° WSW 17:23:32 10° NNW daylight
23 May - 18:58:32 10° W 18:59:54 11° W 19:01:17 10° WNW daylight
24 May - 05:28:47 10° NNE 05:33:52 36° E 05:38:55 10° SSE daylight
24 May - 07:09:26 10° N 07:14:39 45° WNW 07:19:52 10° SW daylight
24 May - 08:52:28 10° NNW 08:54:04 11° NW 08:55:41 10° WNW daylight
24 May - 15:22:02 10° ESE 15:26:17 24° NE 15:30:34 10° N daylight
24 May - 17:01:01 10° S 17:06:28 75° WSW 17:11:58 10° NNW daylight
24 May - 18:45:24 10° WSW 18:48:06 14° W 18:50:49 10° NW daylight
25 May - 05:17:21 10° NNE 05:22:11 30° E 05:26:59 10° SSE daylight
25 May - 06:57:46 10° N 07:03:08 54° WNW 07:08:30 10° SW daylight
25 May - 08:40:14 10° NNW 08:42:42 13° NW 08:45:12 10° WNW daylight
25 May - 15:10:57 10° E 15:14:52 20° NE 15:18:46 10° N daylight
25 May - 16:49:24 10° SSE 16:54:52 90° WSW 17:00:24 10° NNW daylight
25 May - 18:32:52 10° SW 18:36:20 17° W 18:39:50 10° NW daylight
26 May - 05:05:59 10° NE 05:10:29 25° E 05:14:56 10° SE daylight
26 May - 06:46:08 10° NNE 06:51:36 65° WNW 06:57:04 10° SSW daylight
26 May - 08:28:13 10° NNW 08:31:20 16° NW 08:34:27 10° W daylight
26 May - 14:59:58 10° E 15:03:26 18° NE 15:06:55 10° N daylight
26 May - 16:37:51 10° SSE 16:43:18 76° ENE 16:48:47 10° NNW daylight
26 May - 18:20:33 10° SW 18:24:34 21° W 18:28:39 10° NW daylight
27 May - 04:54:42 10° NE 04:58:45 20° E 05:02:47 10° SE daylight
27 May - 06:34:30 10° NNE 06:40:03 78° WNW 06:45:34 10° SSW daylight
27 May - 08:16:19 10° N 08:19:56 18° NW 08:23:33 10° W daylight
27 May - 14:49:05 10° E 14:52:03 15° NE 14:55:01 10° NNE daylight
27 May - 16:26:22 10° SSE 16:31:45 63° ENE 16:37:10 10° N daylight
27 May - 18:08:24 10° SSW 18:12:51 25° W 18:17:21 10° NW daylight
28 May - 04:43:31 10° NE 04:47:00 17° E 04:50:28 10° SE visible
28 May - 06:22:54 10° NNE 06:28:28 88° ESE 06:34:01 10° SSW daylight
28 May - 08:04:29 10° N 08:08:31 21° NW 08:12:33 10° W daylight
28 May - 14:38:21 10° ENE 14:40:40 13° NE 14:42:59 10° NNE daylight
28 May - 16:14:57 10° SE 16:20:12 52° ENE 16:25:31 10° N daylight
28 May - 17:56:23 10° SSW 18:01:08 31° W 18:05:58 10° NNW daylight
29 May - 04:32:33 10° NE 04:35:13 14° E 04:37:54 10° ESE visible
29 May - 06:11:20 10° NNE 06:16:53 73° ESE 06:22:24 10° S daylight
29 May - 07:52:43 10° N 07:57:05 25° NW 08:01:28 10° WSW daylight
29 May - 14:27:59 10° NE 14:29:18 11° NE 14:30:38 10° NNE daylight
29 May - 16:03:34 10° SE 16:08:41 43° ENE 16:13:51 10° N daylight
29 May - 17:44:26 10° SSW 17:49:28 37° W 17:54:33 10° NNW daylight
30 May - 04:22:10 10° ENE 04:23:26 11° E 04:24:42 10° E visible
30 May - 05:59:47 10° NNE 06:05:16 60° ESE 06:10:44 10° S daylight
30 May - 07:40:57 10° N 07:45:38 29° WNW 07:50:19 10° WSW daylight
30 May - 15:52:15 10° SE 15:57:11 37° ENE 16:02:10 10° N daylight
30 May - 17:32:35 10° S 17:37:47 45° W 17:43:04 10° NNW daylight
31 May - 05:48:15 10° NNE 05:53:38 50° E 05:59:00 10° S daylight
31 May - 07:29:14 10° N 07:34:09 34° WNW 07:39:05 10° WSW daylight
31 May - 15:40:59 10° ESE 15:45:42 31° ENE 15:50:28 10° N daylight
31 May - 17:20:48 10° S 17:26:09 55° W 17:31:33 10° NNW daylight
